Location: Writing-on-Stone Provincial Park
(49.0825°N, 111.6163°W)
Time: 07:54:01
(UTC-06:00)

Amateur Radio Satellites - All Passes

Search period start: 27 May 2015 07:24
Search period end: 28 May 2015 07:24
Location: Writing-on-Stone Provincial Park, 49.0825°N, 111.6163°W

Satellite Date Start Highest point End Downlink Frequencies (MHz)
Time Altitude Azimuth
SO-50 27 May 07:42:22 07:45:06 15° 349° (NNW) 07:47:50 436.795
AO-7 27 May 07:52:56 07:59:57 31° 310° (NW) 08:06:50 29.400- 29.500
CUTE-I 27 May 08:03:01 08:08:25 83° 104° (ESE) 08:13:49 437.470
PRISM 27 May 08:17:11 08:20:34 24° 266° (W) 08:23:56 437.425
HO-68 27 May 08:19:37 08:20:17 10° 78° (ENE) 08:21:30 435.675
Cosmos 2491 27 May 08:21:22 08:29:47 49° 271° (W) 08:38:03 435.465 / 435.565
STRAND 1 27 May 08:23:04 08:27:38 32° 265° (W) 08:32:12 437.568
Cubesat XI-IV 27 May 08:23:46 08:29:07 69° 289° (WNW) 08:34:27 437.490
BRITE-PL 27 May 08:28:44 08:33:02 22° 87° (E) 08:37:20 437.365/2234.400
GOMX 1 27 May 08:30:57 08:33:45 15° 83° (E) 08:36:44 467.674
AIST 1 27 May 08:33:02 08:37:26 82° 261° (W) 08:41:50
M-CUBED/EXP-1 PRIME 27 May 08:35:25 08:38:34 20° 261° (W) 08:41:28 437.505
CUBESAT XI-V 27 May 08:40:50 08:41:29 10° 277° (W) 08:41:51 437.345
PCSat 27 May 08:41:33 08:45:55 24° 33° (NNE) 08:50:19 145.827
AUBIESAT-1 27 May 08:43:30 08:46:29 19° 261° (W) 08:49:14 437.475
RS-15 27 May 08:44:42 08:53:32 32° 106° (ESE) 09:02:52 29.354- 29.394
YUBILEINY 27 May 09:16:56 09:25:37 62° 286° (WNW) 09:34:16 435.215
UNISAT 6 27 May 09:19:18 09:20:33 11° 55° (NE) 09:21:59 437.425
SO-50 27 May 09:24:45 09:27:36 15° 13° (NNE) 09:30:29 436.795
DOVE 4 27 May 09:29:11 09:33:41 30° 92° (E) 09:38:01 437.250
CUTE-I 27 May 09:44:12 09:47:55 19° 303° (WNW) 09:51:30 437.470
AO-7 27 May 09:48:12 09:50:08 11° 335° (NNW) 09:51:49 29.400- 29.500
CANX-2 27 May 09:53:48 09:57:53 46° 98° (E) 10:01:57 2200.000
CUBEBUG 2 27 May 09:55:58 09:57:57 13° 85° (E) 10:00:06 437.445
QB50P2 27 May 09:56:44 09:57:55 11° 56° (ENE) 09:59:18 145.880/145.840
CUTE 1.7 + AOD 2 27 May 09:57:18 10:01:23 46° 98° (E) 10:05:26 437.475
ANTELSAT 27 May 09:59:47 10:03:28 24° 64° (ENE) 10:07:13 437.575/2403.000
HO-68 27 May 10:02:53 10:09:54 56° 101° (E) 10:16:55 435.675
Cubesat XI-IV 27 May 10:05:43 10:08:22 14° 307° (NW) 10:10:49 437.490
BRITE-PL 27 May 10:06:24 10:12:06 67° 288° (WNW) 10:17:32 437.365/2234.400
Oscar 11 27 May 10:07:08 10:10:01 18° 89° (E) 10:13:00 145.826/435.025
GOMX 1 27 May 10:07:19 10:12:48 89° 102° (ESE) 10:18:00 467.674
POPSAT HIP 1 27 May 10:07:52 10:09:59 14° 58° (ENE) 10:12:15 437.405
DUCHIFAT 1 27 May 10:09:29 10:11:37 14° 59° (ENE) 10:13:53 145.980
Cosmos 2504 27 May 10:17:36 10:25:15 46° 90° (E) 10:32:31 435.465 / 435.565
SEEDS 27 May 10:19:19 10:23:30 65° 101° (E) 10:27:39 437.485
PCSat 27 May 10:24:38 10:30:07 90° 88° (E) 10:35:32 145.827
BUGSAT 1 27 May 10:30:35 10:33:00 15° 60° (ENE) 10:35:34 437.445
TIGRISAT 27 May 10:31:34 10:36:00 43° 69° (ENE) 10:40:23 435.000
COMPASS 1 27 May 10:31:59 10:36:09 71° 102° (ESE) 10:40:18 437.405
UWE-3 27 May 10:41:14 10:45:04 28° 93° (E) 10:48:50 435.000/436.395/437.385
CINEMA 3 27 May 10:41:44 10:46:33 67° 101° (E) 10:51:06 145.822/145.860
AAUSAT CUBESAT 2 27 May 10:43:49 10:47:59 82° 103° (ESE) 10:52:08 437.432
QB50P1 27 May 10:49:53 10:53:40 32° 67° (ENE) 10:57:31 145.935-145.965
FUNcube-1 27 May 10:50:20 10:54:03 27° 93° (E) 10:57:43 145.935
UNISAT 6 27 May 10:51:55 10:56:34 68° 73° (ENE) 11:01:11 437.425
POLYITAN 1 27 May 10:52:00 10:55:52 34° 67° (ENE) 10:59:48 437.675
RS-15 27 May 10:53:49 11:04:46 85° 310° (NW) 11:16:10 29.354- 29.394
SO-50 27 May 11:05:02 11:09:35 34° 37° (NE) 11:14:06 436.795
DOVE 4 27 May 11:06:40 11:11:36 43° 292° (WNW) 11:16:15 437.250
DELFI C3 27 May 11:08:34 11:12:31 52° 100° (E) 11:16:26 145.870
YUBILEINY 27 May 11:19:23 11:24:47 17° 313° (NW) 11:29:49 435.215
NANOSAT C BR1 27 May 11:20:34 11:24:47 61° 72° (ENE) 11:29:03 145.865
HUMSAT D 27 May 11:21:53 11:25:28 27° 94° (E) 11:29:02 437.325/437.525
QB50P2 27 May 11:28:49 11:33:07 77° 74° (ENE) 11:37:27 145.880/145.840
CANX-2 27 May 11:30:20 11:33:33 21° 297° (WNW) 11:36:42 2200.000
ZACube-1 27 May 11:30:41 11:35:04 70° 102° (ESE) 11:39:18 437.345
CUBEBUG 2 27 May 11:30:48 11:35:21 78° 285° (WNW) 11:39:42 437.445
UKube-1 27 May 11:31:50 11:35:45 32° 96° (E) 11:39:42 .
CUTE 1.7 + AOD 2 27 May 11:33:48 11:37:03 21° 296° (WNW) 11:40:12 437.475
ANTELSAT 27 May 11:35:28 11:40:01 49° 261° (W) 11:44:31 437.575/2403.000
POPSAT HIP 1 27 May 11:40:58 11:45:17 84° 256° (WSW) 11:49:38 437.405
DX 1 27 May 11:41:02 11:45:14 43° 99° (E) 11:49:26 434.975-435.025
Oscar 11 27 May 11:42:21 11:46:34 54° 289° (WNW) 11:50:46 145.826/435.025
DUCHIFAT 1 27 May 11:42:35 11:46:52 83° 254° (WSW) 11:51:12 145.980
GOMX 1 27 May 11:46:36 11:50:12 18° 303° (WNW) 11:53:34 467.674
BRITE-PL 27 May 11:46:38 11:49:38 14° 307° (NW) 11:52:23 437.365/2234.400
HO-68 27 May 11:50:58 11:57:28 38° 301° (WNW) 12:03:50 435.675
CUBEBUG 1 27 May 11:54:29 11:57:32 18° 89° (E) 12:00:42 437.445
GONETS M04 27 May 11:55:26 11:58:52 13° 71° (ENE) 12:02:53
SEEDS 27 May 11:56:14 11:58:52 16° 299° (WNW) 12:01:23 437.485
VELOX 1 27 May 11:56:52 12:00:56 33° 96° (E) 12:05:01 145.980
ESTCUBE 1 27 May 12:01:35 12:05:16 24° 92° (E) 12:09:00 437.505/2401.250
Oscar 19 27 May 12:02:08 12:04:00 12° 52° (NE) 12:06:05 437.125/150
BUGSAT 1 27 May 12:03:50 12:07:59 70° 258° (WSW) 12:12:14 437.445
CUSAT 1 27 May 12:03:50 12:08:30 18° 77° (ENE) 12:13:44 437.405
TIGRISAT 27 May 12:08:58 12:12:54 26° 267° (W) 12:16:45 435.000
COMPASS 1 27 May 12:08:59 12:11:22 15° 300° (WNW) 12:13:36 437.405
PCSat 27 May 12:09:27 12:12:51 17° 254° (WSW) 12:16:03 145.827
Cosmos 2504 27 May 12:10:54 12:18:44 45° 290° (WNW) 12:26:01 435.465 / 435.565
50 SAT 27 May 12:12:04 12:15:54 51° 100° (E) 12:19:40 437.505
UWE-3 27 May 12:17:38 12:21:41 34° 293° (WNW) 12:25:34 435.000/436.395/437.385
CINEMA 3 27 May 12:19:52 12:23:15 19° 300° (WNW) 12:26:25 145.822/145.860
AAUSAT CUBESAT 2 27 May 12:21:03 12:23:03 13° 301° (WNW) 12:24:54 437.432
QB50P1 27 May 12:25:43 12:29:32 30° 265° (W) 12:33:21 145.935-145.965
FUNcube-1 27 May 12:26:28 12:30:28 35° 293° (WNW) 12:34:19 145.935
POLYITAN 1 27 May 12:28:02 12:31:49 29° 266° (W) 12:35:36 437.675
AISAT 27 May 12:28:26 12:32:57 70° 102° (ESE) 12:37:25 437.250
UNISAT 6 27 May 12:30:47 12:33:51 17° 272° (W) 12:36:44 437.425
SPROUT 27 May 12:32:21 12:34:23 13° 86° (E) 12:36:36 437.525
DELFI C3 27 May 12:44:31 12:47:18 18° 297° (WNW) 12:49:58 145.870
SO-50 27 May 12:45:31 12:50:22 53° 237° (WSW) 12:55:09 436.795
TISAT 1 27 May 12:53:28 12:56:02 16° 89° (E) 12:58:43 437.305
HUMSAT D 27 May 12:57:29 13:01:16 33° 293° (WNW) 13:04:57 437.325/437.525
Gurwin Techsat 1B 27 May 12:57:50 12:59:34 12° 51° (NE) 13:01:31 435.225
NANOSAT C BR1 27 May 12:58:21 13:01:05 16° 272° (W) 13:03:40 145.865
QB50P2 27 May 13:07:33 13:09:37 13° 274° (W) 13:11:31 145.880/145.840
UKube-1 27 May 13:08:01 13:11:52 31° 294° (WNW) 13:15:40 .
ZACube-1 27 May 13:08:12 13:10:55 16° 300° (WNW) 13:13:28 437.345
RS-15 27 May 13:08:31 13:18:52 42° 340° (NNW) 13:29:35 29.354- 29.394
CUBEBUG 2 27 May 13:09:33 13:11:18 12° 304° (NW) 13:12:51 437.445
DANDE 27 May 13:15:10 13:21:59 41° 88° (E) 13:29:48 436.750
DX 1 27 May 13:17:42 13:21:18 25° 297° (WNW) 13:24:50 434.975-435.025
AO-7 27 May 13:23:55 13:27:49 15° 33° (NNE) 13:32:00 29.400- 29.500
CUBEBUG 1 27 May 13:29:54 13:34:17 56° 289° (WNW) 13:38:39 437.445
VELOX 1 27 May 13:33:28 13:37:28 31° 294° (WNW) 13:41:24 145.980
Oscar 19 27 May 13:37:19 13:42:28 63° 71° (ENE) 13:47:38 437.125/150
ESTCUBE 1 27 May 13:38:01 13:42:21 43° 291° (WNW) 13:46:37 437.505/2401.250
HO-68 27 May 13:41:48 13:43:20 11° 324° (NW) 13:44:33 435.675
CUSAT 1 27 May 13:42:18 13:49:52 71° 97° (E) 13:58:12 437.405
GONETS M04 27 May 13:45:22 13:53:58 60° 92° (E) 14:02:38
50 SAT 27 May 13:47:40 13:50:16 17° 298° (WNW) 13:52:46 437.505
ITAMSAT 1 27 May 13:53:18 13:57:47 31° 63° (ENE) 14:02:20 435.822/435.867
ITUPSAT 1 27 May 13:59:24 14:01:47 14° 86° (E) 14:04:23 437.325
AISAT 27 May 14:06:04 14:09:04 17° 301° (WNW) 14:11:56 437.250
BEESAT 27 May 14:06:20 14:09:17 17° 88° (E) 14:12:24 436.000
SPROUT 27 May 14:06:43 14:11:05 75° 286° (WNW) 14:15:24 437.525
Cosmos 2504 27 May 14:12:48 14:14:39 11° 316° (NW) 14:16:00 435.465 / 435.565
SWISSCUBE 27 May 14:14:29 14:18:03 21° 91° (E) 14:21:44 437.505
TISAT 1 27 May 14:28:01 14:32:16 62° 287° (WNW) 14:36:28 437.305
Gurwin Techsat 1B 27 May 14:33:23 14:38:35 60° 70° (ENE) 14:43:51 435.225
Cosmos 2499 27 May 14:46:31 14:52:55 29° 84° (E) 14:59:09 435.465 / 435.565
DANDE 27 May 14:57:33 15:05:01 57° 290° (WNW) 15:13:28 436.750
AO-7 27 May 15:10:59 15:18:36 43° 57° (ENE) 15:26:20 29.400- 29.500
JAS-2 27 May 15:15:00 15:20:38 35° 65° (ENE) 15:25:48 435.910
Oscar 19 27 May 15:18:22 15:22:19 21° 271° (W) 15:26:08 437.125/150
RS-15 27 May 15:24:26 15:34:45 39° 13° (NNE) 15:45:34 29.354- 29.394
CUSAT 1 27 May 15:26:13 15:33:19 35° 299° (WNW) 15:40:42 437.405
HORYU 2 27 May 15:32:06 15:36:14 38° 68° (ENE) 15:40:25 437.375
ITAMSAT 1 27 May 15:32:14 15:37:10 44° 262° (W) 15:42:08 435.822/435.867
ITUPSAT 1 27 May 15:35:34 15:40:24 83° 286° (WNW) 15:45:12 437.325
KKS-1 27 May 15:37:20 15:40:55 24° 92° (E) 15:44:35 437.445
BEESAT 27 May 15:42:55 15:47:42 70° 287° (WNW) 15:52:26 436.000
GONETS M04 27 May 15:43:12 15:51:22 38° 295° (WNW) 15:59:25
SPROUT 27 May 15:45:09 15:46:27 11° 304° (NW) 15:47:34 437.525
O/OREOS (USA 219) 27 May 15:49:06 15:52:47 26° 105° (ESE) 15:56:32 437.305
SWISSCUBE 27 May 15:51:36 15:56:17 55° 290° (WNW) 16:00:57 437.505
Gurwin Techsat 1B 27 May 16:14:50 16:19:01 23° 270° (W) 16:23:07 435.225
Cosmos 2499 27 May 16:37:38 16:45:38 67° 284° (WNW) 16:53:03 435.465 / 435.565
STARS 27 May 16:39:31 16:43:55 60° 101° (E) 16:48:17 437.465
DANDE 27 May 16:45:12 16:50:30 18° 315° (NW) 16:55:41 436.750
JAS-2 27 May 16:59:24 17:05:42 47° 261° (W) 17:11:18 435.910
AO-7 27 May 17:03:09 17:11:17 56° 258° (WSW) 17:19:27 29.400- 29.500
HORYU 2 27 May 17:09:10 17:13:00 27° 266° (W) 17:16:48 437.375
MOZHAYETS 4 27 May 17:11:03 17:14:26 21° 90° (E) 17:17:56
KKS-1 27 May 17:13:29 17:17:47 44° 291° (WNW) 17:22:01 437.445
ITUPSAT 1 27 May 17:15:07 17:17:37 14° 304° (NW) 17:19:56 437.325
CUSAT 1 27 May 17:17:30 17:18:59 10° 324° (NW) 17:20:03 437.405
BEESAT 27 May 17:22:54 17:24:46 12° 306° (NW) 17:26:25 436.000
YUBILEINY 27 May 17:25:43 17:32:09 23° 54° (NE) 17:38:51 435.215
O/OREOS (USA 219) 27 May 17:27:43 17:32:01 43° 304° (WNW) 17:36:20 437.305
RS-15 27 May 17:38:02 17:49:31 70° 43° (NE) 18:01:32 29.354- 29.394
BEESAT 3 27 May 17:39:09 17:39:58 11° 110° (ESE) 17:41:00 437.485
CUTE-I 27 May 17:50:00 17:54:41 33° 64° (ENE) 17:59:27 437.470
GONETS M04 27 May 17:51:06 17:51:46 10° 324° (NW) 17:51:55
Cubesat XI-IV 27 May 18:10:21 18:15:24 48° 68° (ENE) 18:20:33 437.490
STARS 27 May 18:16:49 18:20:00 19° 299° (WNW) 18:23:03 437.465
BEESAT 2 27 May 18:26:04 18:29:26 25° 117° (ESE) 18:32:53 435.950
Cosmos 2499 27 May 18:35:46 18:40:27 16° 308° (NW) 18:44:39 435.465 / 435.565
MOZHAYETS 4 27 May 18:47:33 18:52:00 51° 289° (WNW) 18:56:26
HO-68 27 May 18:51:39 18:55:52 17° 46° (NE) 19:00:19 435.675
CUBESAT XI-V 27 May 18:51:46 18:55:11 20° 89° (E) 18:58:43 437.345
AO-7 27 May 19:03:35 19:06:21 11° 282° (WNW) 19:08:28 29.400- 29.500
BEESAT 3 27 May 19:13:13 19:17:18 81° 127° (SE) 19:21:27 437.485
YUBILEINY 27 May 19:21:50 19:30:36 84° 81° (E) 19:39:19 435.215
CUTE-I 27 May 19:29:39 19:34:41 42° 263° (W) 19:39:45 437.470
Cosmos 2491 27 May 19:30:48 19:38:53 44° 87° (E) 19:47:08 435.465 / 435.565
GOMX 1 27 May 19:42:08 19:46:20 25° 61° (ENE) 19:50:45 467.674
BRITE-PL 27 May 19:42:59 19:47:42 35° 65° (ENE) 19:52:44 437.365/2234.400
SEEDS 27 May 19:43:21 19:44:09 11° 57° (ENE) 19:45:09 437.485
RS-15 27 May 19:50:50 20:01:37 45° 248° (WSW) 20:12:37 29.354- 29.394
Cubesat XI-IV 27 May 19:51:10 19:55:46 29° 267° (W) 20:00:19 437.490
PRISM 27 May 19:54:36 19:58:22 33° 96° (E) 20:02:09 437.425
COMPASS 1 27 May 19:54:51 19:56:02 11° 58° (ENE) 19:57:25 437.405
AIST 2 27 May 19:58:02 20:02:14 59° 124° (SE) 20:06:28 435.215
BEESAT 2 27 May 20:03:19 20:07:20 47° 316° (NW) 20:11:22 435.950
Cosmos 2504 27 May 20:05:22 20:10:21 20° 55° (NE) 20:15:30 435.465 / 435.565
AAUSAT CUBESAT 2 27 May 20:05:45 20:07:25 12° 59° (ENE) 20:09:15 437.432
CINEMA 3 27 May 20:12:03 20:15:06 17° 58° (ENE) 20:18:20 145.822/145.860
M-CUBED/EXP-1 PRIME 27 May 20:12:46 20:14:20 13° 96° (E) 20:16:02 437.505
AUBIESAT-1 27 May 20:20:00 20:21:43 14° 96° (E) 20:23:33 437.475
CUBESAT XI-V 27 May 20:28:24 20:33:01 56° 289° (WNW) 20:37:37 437.345
STRAND 1 27 May 20:28:33 20:33:40 63° 101° (ESE) 20:38:47 437.568
HO-68 27 May 20:35:20 20:42:23 63° 67° (ENE) 20:49:29 435.675
DOVE 4 27 May 20:37:55 20:42:51 46° 69° (ENE) 20:47:58 437.250
CANX-2 27 May 20:50:27 20:54:38 56° 72° (ENE) 20:58:49 2200.000
BEESAT 3 27 May 20:52:36 20:55:47 21° 328° (NNW) 20:58:57 437.485
CUTE 1.7 + AOD 2 27 May 20:53:53 20:58:03 55° 72° (ENE) 21:02:13 437.475
ZACube-1 27 May 20:56:37 20:58:54 14° 58° (ENE) 21:01:20 437.345
CUBEBUG 2 27 May 20:57:21 21:00:51 21° 62° (ENE) 21:04:27 437.445
Oscar 11 27 May 21:05:45 21:09:12 24° 64° (ENE) 21:12:43 145.826/435.025
AIST 1 27 May 21:06:39 21:10:43 46° 94° (E) 21:14:52
SEEDS 27 May 21:15:04 21:19:17 76° 75° (ENE) 21:23:30 437.485
GOMX 1 27 May 21:18:52 21:24:02 61° 260° (W) 21:29:29 467.674
YUBILEINY 27 May 21:19:49 21:26:30 25° 281° (W) 21:32:54 435.215
BRITE-PL 27 May 21:21:11 21:26:07 41° 265° (W) 21:31:22 437.365/2234.400
COMPASS 1 27 May 21:26:54 21:31:05 82° 76° (ENE) 21:35:17 437.405
Cosmos 2491 27 May 21:27:12 21:35:44 51° 290° (WNW) 21:44:18 435.465 / 435.565
PRISM 27 May 21:30:10 21:33:45 28° 294° (WNW) 21:37:18 437.425
AIST 2 27 May 21:37:27 21:41:08 26° 325° (NW) 21:44:47 435.215
AAUSAT CUBESAT 2 27 May 21:38:17 21:42:28 88° 257° (WSW) 21:46:39 437.432
UWE-3 27 May 21:41:46 21:46:09 40° 69° (ENE) 21:50:31 435.000/436.395/437.385
BEESAT 2 27 May 21:44:09 21:46:24 14° 338° (NNW) 21:48:37 435.950
M-CUBED/EXP-1 PRIME 27 May 21:46:21 21:49:34 45° 294° (WNW) 21:52:43 437.505
CINEMA 3 27 May 21:46:39 21:51:41 87° 256° (WSW) 21:56:46 145.822/145.860
FUNcube-1 27 May 21:49:33 21:53:46 38° 69° (ENE) 21:57:59 145.935
AUBIESAT-1 27 May 21:53:39 21:56:51 43° 295° (WNW) 21:59:59 437.475
AISAT 27 May 21:55:57 21:58:26 15° 58° (ENE) 22:01:05 437.250
Cosmos 2504 27 May 21:57:46 22:05:04 87° 80° (E) 22:12:17 435.465 / 435.565
DELFI C3 27 May 21:59:39 22:03:35 56° 72° (ENE) 22:07:33 145.870
STRAND 1 27 May 22:08:30 22:12:30 23° 300° (WNW) 22:16:24 437.568
DANDE 27 May 22:11:21 22:14:29 13° 38° (NE) 22:17:46 436.750
DOVE 4 27 May 22:16:15 22:20:48 29° 268° (W) 22:25:25 437.250
HUMSAT D 27 May 22:17:19 22:21:13 34° 68° (ENE) 22:25:08 437.325/437.525
HO-68 27 May 22:24:19 22:30:37 31° 267° (W) 22:36:51 435.675
CANX-2 27 May 22:28:06 22:30:58 17° 271° (W) 22:33:41 2200.000
ZACube-1 27 May 22:30:03 22:34:40 90° 77° (ENE) 22:39:15 437.345
UKube-1 27 May 22:30:23 22:34:32 47° 69° (ENE) 22:38:44 .
CUTE 1.7 + AOD 2 27 May 22:31:28 22:34:21 17° 271° (W) 22:37:06 437.475
CUBEBUG 2 27 May 22:32:27 22:37:10 60° 259° (W) 22:41:54 437.445
CUSAT 1 27 May 22:36:04 22:40:53 18° 47° (NE) 22:45:23 437.405
DX 1 27 May 22:40:21 22:44:39 63° 72° (ENE) 22:49:01 434.975-435.025
Oscar 11 27 May 22:41:03 22:45:11 42° 262° (W) 22:49:20 145.826/435.025
AIST 1 27 May 22:45:27 22:48:41 20° 294° (WNW) 22:51:52
SEEDS 27 May 22:53:46 22:55:41 12° 274° (W) 22:57:24 437.485
CUBEBUG 1 27 May 22:54:28 22:58:03 26° 64° (ENE) 23:01:43 437.445
VELOX 1 27 May 22:58:12 23:02:29 49° 70° (ENE) 23:06:50 145.980
50 SAT 27 May 23:00:22 23:04:15 53° 72° (ENE) 23:08:09 437.505
ESTCUBE 1 27 May 23:05:03 23:09:09 36° 67° (ENE) 23:13:17 437.505/2401.250
COMPASS 1 27 May 23:05:59 23:07:25 11° 275° (W) 23:08:40 437.405
UWE-3 27 May 23:18:45 23:22:48 28° 267° (W) 23:26:47 435.000/436.395/437.385
AIST 2 27 May 23:19:51 23:21:08 11° 348° (NNW) 23:22:20 435.215
ANTELSAT 27 May 23:23:49 23:27:29 26° 93° (E) 23:31:08 437.575/2403.000
POPSAT HIP 1 27 May 23:23:59 23:25:43 12° 86° (E) 23:27:40 437.405
DUCHIFAT 1 27 May 23:25:07 23:26:50 12° 86° (E) 23:28:46 145.980
FUNcube-1 27 May 23:26:11 23:30:11 28° 267° (W) 23:34:07 145.935
CINEMA 3 27 May 23:27:12 23:29:42 13° 276° (W) 23:31:57 145.822/145.860
ISS 27 May 23:28:53 23:30:17 12° 137° (SE) 23:31:46 145.825
AISAT 27 May 23:30:00 23:34:28 81° 256° (WSW) 23:38:59 437.250
SPROUT 27 May 23:30:15 23:33:13 19° 62° (ENE) 23:36:18 437.525
Cosmos 2491 27 May 23:31:07 23:35:28 14° 318° (NW) 23:39:24 435.465 / 435.565
DELFI C3 27 May 23:36:35 23:39:06 15° 271° (W) 23:41:29 145.870
BUGSAT 1 27 May 23:43:28 23:45:36 14° 87° (E) 23:47:54 437.445
TISAT 1 27 May 23:49:26 23:52:37 21° 63° (ENE) 23:55:54 437.305
GONETS M04 27 May 23:50:31 23:58:31 38° 64° (ENE) 00:06:34
Cosmos 2504 27 May 23:52:37 23:57:33 19° 281° (W) 00:02:10 435.465 / 435.565
DANDE 27 May 23:52:49 00:00:29 43° 64° (ENE) 00:06:50 436.750
HUMSAT D 27 May 23:53:14 23:57:01 28° 266° (W) 00:00:44 437.325/437.525
TIGRISAT 27 May 23:55:49 00:00:07 51° 99° (E) 00:04:19 435.000
QB50P1 28 May 00:06:22 00:10:14 32° 95° (E) 00:14:06 145.935-145.965
UKube-1 28 May 00:07:36 00:10:57 21° 269° (W) 00:14:12 .
POLYITAN 1 28 May 00:08:54 00:12:50 34° 96° (E) 00:16:46 437.675
ZACube-1 28 May 00:09:51 00:11:45 12° 275° (W) 00:13:24 437.345
BEESAT 3 28 May 00:13:53 00:15:05 11° 15° (NNE) 00:16:21 437.485
O/OREOS (USA 219) 28 May 00:15:37 00:18:34 17° 43° (NE) 00:21:36 437.305
UNISAT 6 28 May 00:16:39 00:21:06 84° 104° (ESE) 00:25:26 437.425
CUSAT 1 28 May 00:17:51 00:25:26 70° 74° (ENE) 00:31:20 437.405
DX 1 28 May 00:18:36 00:21:23 16° 271° (W) 00:24:02 434.975-435.025
CUBEBUG 1 28 May 00:30:07 00:34:15 40° 263° (W) 00:38:25 437.445
Cosmos 2499 28 May 00:32:53 00:35:19 12° 47° (NE) 00:38:07 435.465 / 435.565
VELOX 1 28 May 00:35:56 00:39:22 21° 269° (W) 00:42:41 145.980
50 SAT 28 May 00:36:44 00:39:19 16° 271° (W) 00:41:46 437.505
NANOSAT C BR1 28 May 00:37:06 00:41:23 65° 101° (ESE) 00:45:37 145.865
ESTCUBE 1 28 May 00:42:11 00:46:06 28° 266° (W) 00:49:59 437.505/2401.250
QB50P2 28 May 00:45:54 00:50:13 82° 103° (ESE) 00:54:29 145.880/145.840
POPSAT HIP 1 28 May 00:57:55 01:02:15 78° 284° (WNW) 01:06:30 437.405
DUCHIFAT 1 28 May 00:58:59 01:03:17 78° 286° (WNW) 01:07:32 145.980
ANTELSAT 28 May 01:00:18 01:04:25 38° 292° (WNW) 01:08:24 437.575/2403.000
AIST 2 28 May 01:00:25 01:01:33 11° 12° (NNE) 01:02:45 435.215
ISS 28 May 01:02:59 01:06:11 59° 154° (SSE) 01:09:25 145.825
BEESAT 2 28 May 01:03:29 01:06:01 16° 25° (NNE) 01:08:37 435.950
SPROUT 28 May 01:04:40 01:08:56 58° 259° (W) 01:13:15 437.525
ITUPSAT 1 28 May 01:09:39 01:13:34 26° 63° (ENE) 01:17:34 437.325
PCSat 28 May 01:10:35 01:15:25 35° 114° (ESE) 01:20:22 145.827
BEESAT 28 May 01:16:25 01:20:32 30° 64° (ENE) 01:24:42 436.000
BUGSAT 1 28 May 01:17:20 01:21:38 71° 287° (WNW) 01:25:52 437.445
TISAT 1 28 May 01:23:59 01:28:07 48° 261° (W) 01:32:17 437.305
SWISSCUBE 28 May 01:24:47 01:29:08 38° 67° (ENE) 01:33:34 437.505
TIGRISAT 28 May 01:33:13 01:36:34 21° 298° (WNW) 01:39:46 435.000
DANDE 28 May 01:36:15 01:43:55 49° 270° (W) 01:50:04 436.750
QB50P1 28 May 01:42:17 01:46:04 30° 294° (WNW) 01:49:46 145.935-145.965
POLYITAN 1 28 May 01:44:58 01:48:41 28° 294° (WNW) 01:52:18 437.675
Oscar 19 28 May 01:45:59 01:49:03 16° 87° (E) 01:52:19 437.125/150
GONETS M04 28 May 01:47:18 01:55:56 60° 268° (W) 02:04:25
BEESAT 3 28 May 01:50:41 01:54:20 30° 38° (NE) 01:57:59 437.485
O/OREOS (USA 219) 28 May 01:54:08 01:58:38 82° 245° (WSW) 02:03:06 437.305
UNISAT 6 28 May 01:54:56 01:57:17 14° 302° (WNW) 01:59:28 437.425
CUSAT 1 28 May 02:01:29 02:07:17 25° 279° (W) 02:12:00 437.405
STARS 28 May 02:06:43 02:08:45 13° 57° (ENE) 02:10:56 437.465
NANOSAT C BR1 28 May 02:13:59 02:16:47 17° 299° (WNW) 02:19:28 145.865
QB50P2 28 May 02:23:16 02:25:33 14° 301° (WNW) 02:27:41 145.880/145.840
Cosmos 2499 28 May 02:23:37 02:30:33 55° 73° (ENE) 02:37:33 435.465 / 435.565
POPSAT HIP 1 28 May 02:36:00 02:37:26 11° 304° (WNW) 02:38:41 437.405
DUCHIFAT 1 28 May 02:37:02 02:38:25 11° 304° (WNW) 02:39:37 145.980
AIST 2 28 May 02:37:57 02:41:33 26° 35° (NE) 02:45:09 435.215
KKS-1 28 May 02:39:12 02:43:17 36° 67° (ENE) 02:47:25 437.445
ISS 28 May 02:39:27 02:42:40 55° 353° (N) 02:45:54 145.825
BEESAT 2 28 May 02:40:50 02:44:57 60° 47° (NE) 02:48:59 435.950
Gurwin Techsat 1B 28 May 02:46:26 02:49:48 17° 87° (E) 02:53:22 435.225
ITUPSAT 1 28 May 02:46:42 02:51:16 45° 261° (W) 02:55:52 437.325
PCSat 28 May 02:53:31 02:58:46 47° 314° (NW) 03:04:02 145.827
BEESAT 28 May 02:53:50 02:58:17 38° 263° (W) 03:02:44 436.000
BUGSAT 1 28 May 02:55:30 02:56:22 10° 304° (NW) 02:57:02 437.445
SWISSCUBE 28 May 03:02:54 03:07:06 30° 266° (W) 03:11:16 437.505
SO-50 28 May 03:04:40 03:08:03 20° 113° (ESE) 03:11:39 436.795
Oscar 19 28 May 03:23:56 03:29:08 79° 288° (WNW) 03:34:17 437.125/150
BEESAT 3 28 May 03:28:33 03:32:28 43° 238° (WSW) 03:36:18 437.485
O/OREOS (USA 219) 28 May 03:36:43 03:37:21 10° 262° (W) 03:37:44 437.305
STARS 28 May 03:40:06 03:44:34 87° 75° (ENE) 03:49:03 437.465
ITAMSAT 1 28 May 03:40:31 03:45:34 49° 99° (E) 03:50:39 435.822/435.867
GONETS M04 28 May 03:47:04 03:51:01 13° 289° (WNW) 03:54:23
VERMONT LUNAR 28 May 04:01:25 04:03:39 17° 175° (S) 04:05:53 437.305
JAS-2 28 May 04:04:56 04:07:59 16° 87° (E) 04:11:16 435.910
KKS-1 28 May 04:16:02 04:19:59 29° 266° (W) 04:23:54 437.445
ISS 28 May 04:16:04 04:19:20 66° 14° (NNE) 04:22:35 145.825
AIST 2 28 May 04:16:16 04:20:28 59° 236° (SW) 04:24:33 435.215
MOZHAYETS 4 28 May 04:16:47 04:20:47 31° 66° (ENE) 04:24:51
Cosmos 2499 28 May 04:17:18 04:23:24 31° 274° (W) 04:29:24 435.465 / 435.565
BEESAT 2 28 May 04:19:42 04:22:40 19° 246° (WSW) 04:25:30 435.950
Gurwin Techsat 1B 28 May 04:25:09 04:30:29 78° 288° (WNW) 04:35:48 435.225
PCSat 28 May 04:40:08 04:43:34 16° 338° (NNW) 04:46:56 145.827
SO-50 28 May 04:43:24 04:48:08 71° 312° (NW) 04:53:03 436.795
PHONESAT 2.4 28 May 04:44:33 04:46:57 18° 170° (S) 04:49:21 2401.200-2431.200
HORYU 2 28 May 04:55:29 04:59:43 42° 98° (E) 05:03:56 437.375
AO-7 28 May 04:59:47 05:07:33 41° 97° (E) 05:15:24 29.400- 29.500
Oscar 19 28 May 05:04:53 05:07:45 15° 305° (NW) 05:10:26 437.125/150
STARS 28 May 05:19:57 05:21:44 12° 275° (W) 05:23:19 437.465
ITAMSAT 1 28 May 05:20:25 05:24:53 29° 298° (WNW) 05:29:16 435.822/435.867
Cosmos 2491 28 May 05:35:32 05:42:51 29° 59° (ENE) 05:50:20 435.465 / 435.565
VERMONT LUNAR 28 May 05:38:15 05:40:10 15° 192° (SSW) 05:42:04 437.305
JAS-2 28 May 05:48:41 05:53:53 75° 288° (WNW) 05:59:10 435.910
ISS 28 May 05:52:36 05:55:39 37° 212° (SSW) 05:58:42 145.825
MOZHAYETS 4 28 May 05:53:48 05:57:59 34° 265° (W) 06:02:10
CUBESAT XI-V 28 May 05:59:00 06:03:00 31° 66° (ENE) 06:07:06 437.345
Gurwin Techsat 1B 28 May 06:06:43 06:09:43 15° 306° (NW) 06:12:31 435.225
STRAND 1 28 May 06:11:03 06:14:54 23° 60° (ENE) 06:18:53 437.568
PHONESAT 2.4 28 May 06:21:51 06:24:24 19° 187° (S) 06:26:55 2401.200-2431.200
Cubesat XI-IV 28 May 06:24:58 06:27:26 13° 84° (E) 06:30:10 437.490
SO-50 28 May 06:25:50 06:29:33 21° 335° (NNW) 06:33:17 436.795
PCSat 28 May 06:27:30 06:29:20 12° 4° (N) 06:31:10 145.827
HORYU 2 28 May 06:32:32 06:36:11 25° 296° (WNW) 06:39:45 437.375
YUBILEINY 28 May 06:34:36 06:40:18 20° 76° (ENE) 06:46:21 435.215
PRISM 28 May 06:48:30 06:52:22 42° 69° (ENE) 06:56:15 437.425
AO-7 28 May 06:52:33 07:00:41 57° 298° (WNW) 07:08:46 29.400- 29.500
M-CUBED/EXP-1 PRIME 28 May 07:03:26 07:07:19 45° 65° (ENE) 07:10:57 437.505
AIST 1 28 May 07:09:54 07:13:05 20° 66° (ENE) 07:16:22
AUBIESAT-1 28 May 07:10:19 07:14:11 46° 66° (ENE) 07:17:47 437.475
